GEESAT-3 07

Last updated on Sun Oct 06 2024 00:02:04 GMT+0000 (Coordinated Universal Time)

1 61017U 24159G 24279.51791677 .00019026 00000+0 18666-2 0 9999 2 61017 49.9920 99.6595 0016728 25.0266 335.1484 14.92074250 4419
UTC large
Height (km)
Speed (km/s)
/
Latitude / Longitude
Inclination (degrees)
Orbital Period (minutes)
Azimuth
Elevation
Range (km)
Doppler Factor

Next 0 passes for location: London (51.5072 / 0.1276)

Sorry there are no passes over London.